Flag for U.S.A. Weather past 2 weeks in New Salem, North Dakota, U.S.A.

Now
58 °F

Clear.


Feels Like: 58 °F
Forecast: 46 / 59 °F
Wind: 3 mph from South

Location: Bismarck Municipal Airport

Current Time: May 23, 2015 at 1:11:08 AM

Latest Report: May 22, 2015 at 11:52 PM


Visibility: 10 mi

Pressure: 30.11 "Hg

Humidity: 50%

Dew point: 39 °F

Location of New SalemLocation

Historic Weather in New Salem — Graph

°F

New Salem temperature yesterday

Maximum temperature yesterday: 76 °F (at 3:52 PM)
Minimum temperature yesterday: 40 °F (at 6:52 AM)
Average temperature yesterday: 61 °F

Past Weeks' High & Low Weather Summary

 TemperatureHumidityPressure
High76 °F (May 22, 3:52 PM)97% (May 14, 5:52 AM)30.51 "Hg (May 14, 5:52 AM)
Low27 °F (May 19, 4:52 AM)18% (May 21, 4:52 PM)29.57 "Hg (May 16, 6:52 PM)
Average49 °F69%30.10 "Hg
* Reported May 7 11:52 PM — May 22 11:52 PM, New Salem, Weather by CustomWeather, © 2015

Note: Actual official high and low records may vary slightly from our data, if they occured in-between our weather recording intervals... More about our weather records

Advertising

New Salem weather history for previous 24 hours

 ConditionsComfort  
Time TempWeatherWind HumidityBarometerVisibility
11:52 PM
Fri, May 22
58 °FClear.3 mph50%30.11 "Hg10 mi
10:52 PM62 °FClear.9 mph43%30.10 "Hg10 mi
9:52 PM55 °FSunny.7 mph62%30.10 "Hg10 mi
8:52 PM66 °FOvercast.9 mph40%30.09 "Hg10 mi
7:52 PM71 °FSunny.13 mph30%30.07 "Hg10 mi
6:52 PM73 °FPassing clouds.18 mph26%30.08 "Hg10 mi
5:52 PM74 °FPassing clouds.15 mph26%30.09 "Hg10 mi
4:52 PM76 °FScattered clouds.14 mph24%30.10 "Hg10 mi
3:52 PM76 °FPassing clouds.20 mph25%30.11 "Hg10 mi
2:52 PM75 °FScattered clouds.14 mph25%30.13 "Hg10 mi
1:52 PM74 °FSunny.10 mph25%30.13 "Hg10 mi
12:52 PM73 °FSunny.9 mph27%30.14 "Hg10 mi
11:52 AM72 °FSunny.5 mph29%30.15 "Hg10 mi
10:52 AM68 °FSunny.3 mph35%30.16 "Hg10 mi
9:52 AM62 °FSunny.No wind54%30.16 "Hg10 mi
8:52 AM54 °FSunny.No wind72%30.17 "Hg9 mi
7:52 AM50 °FSunny.No wind77%30.17 "Hg10 mi
6:52 AM40 °FClear.No wind93%30.18 "Hg10 mi
5:52 AM43 °FClear.5 mph86%30.16 "Hg10 mi
4:52 AM43 °FClear.5 mph86%30.15 "Hg10 mi
3:52 AM47 °FClear.7 mph80%30.15 "Hg10 mi
2:52 AM47 °FClear.6 mph83%30.14 "Hg10 mi
1:52 AM49 °FClear.8 mph77%30.14 "Hg10 mi
Weather by CustomWeather, © 2015

See weather overviewHow to use our weather pages